[[{"header":{"parameterUnit":"m.s-1","parameterCategory":1,"la1":30.2991,"la2":30.254,"lo1":-89.0895,"lo2":-89.0444,"dy":0.0017,"dx":0.0017,"nx":28,"ny":28,"refTime":"2024-03-29T09:00:00:Z","depth":0,"parameterNumber":2,"parameterNumberName":"U-component_of_WINDS"},"data":[0,0,0,0,0,0,0,0,0,0,0,0,0,0,0,0,0,0,0,0,0,0,0,0,0,0,0,0,0,0,0,0,0,0,0,0,0,0,0,0,0,0,0,0,0,0,0,0,0,0,0,0,0,0,0,0,0,0,-0.5248,-0.5247,0,-0.521,-0.521,-0.5209,-0.5188,-0.5188,-0.5188,-0.5188,-0.5151,-0.515,-0.5149,0,0,0,0,0,0,0,0,0,0,0,0,0,-0.5302,-0.5301,-0.5248,-0.5247,-0.5247,-0.521,-0.521,-0.5209,-0.5188,-0.5188,-0.5188,-0.5188,-0.5151,-0.515,-0.5149,0,0,0,0,0,0,0,0,0,0,0,0,0,-0.5273,-0.5301,-0.5248,-0.5232,-0.523,-0.521,-0.521,-0.5209,-0.5188,-0.5188,-0.5188,-0.5188,-0.5151,-0.515,-0.5149,-0.5142,0,0,-0.5144,-0.5144,0,0,0,0,0,0,0,0,-0.5275,-0.5271,-0.5235,-0.5233,-0.5231,-0.5204,-0.5215,-0.5187,-0.5188,-0.5204,-0.5188,-0.5188,-0.5168,-0.5166,-0.5159,-0.5141,-0.5139,-0.5144,-0.5143,-0.5143,-0.5142,0,0,0,0,0,0,0,-0.5277,-0.5272,-0.5233,-0.5234,-0.5232,-0.5227,-0.5223,-0.521,-0.5187,-0.5203,-0.5201,-0.5197,-0.5167,-0.516,-0.5158,-0.5138,-0.5144,-0.5143,-0.5142,-0.5142,-0.5113,-0.5113,0,0,0,0,0,0,-0.5281,-0.5274,-0.5234,-0.5232,-0.5253,-0.5226,-0.5221,-0.5213,-0.5187,-0.5184,-0.5197,-0.5196,-0.5163,-0.516,-0.5156,-0.5148,-0.5143,-0.5141,-0.5141,-0.5113,-0.5113,-0.5113,0,0,0,0,0,0,-0.5282,-0.5278,-0.5236,-0.5252,-0.5247,-0.5225,-0.5216,-0.5212,-0.5205,-0.5183,-0.5179,-0.5194,-0.5163,-0.5158,-0.5146,-0.5146,-0.5141,-0.514,-0.5113,-0.5113,-0.5113,-0.513,0,0,0,0,0,0,-0.5284,-0.5278,-0.5275,-0.5253,-0.5246,-0.5225,-0.5216,-0.5211,-0.5202,-0.5201,-0.5179,-0.5175,-0.5162,-0.5148,-0.5145,-0.5144,-0.5138,-0.5113,-0.5113,-0.5113,-0.5129,-0.5131,-0.5132,0,0,0,0,0,-0.5286,-0.5282,-0.5275,-0.527,-0.5242,-0.5225,-0.5222,-0.5206,-0.5202,-0.52,-0.5186,-0.5176,-0.5147,-0.5147,-0.5143,-0.5142,-0.5113,-0.5113,-0.5113,-0.5129,-0.513,-0.5132,0,0,0,0,0,0,-0.5305,-0.5278,-0.5271,-0.5259,-0.5245,-0.5222,-0.5218,-0.5208,-0.5195,-0.5194,-0.5176,-0.5171,-0.516,-0.515,-0.5151,-0.5135,-0.5129,-0.5128,-0.5142,-0.5143,-0.5144,-0.5147,-0.5137,0,0,0,0,0,-0.5308,-0.5297,-0.5274,-0.5266,-0.5259,-0.524,-0.5232,-0.5221,-0.5206,-0.52,-0.5185,-0.517,-0.5158,-0.515,-0.5137,-0.5128,-0.5123,-0.5125,-0.5126,-0.5127,-0.5127,-0.5121,-0.5122,-0.5114,-0.5114,-0.5114,0,0,-0.5314,-0.5298,-0.5292,-0.5269,-0.5257,-0.5246,-0.5235,-0.5223,-0.5215,-0.5198,-0.5185,-0.5174,-0.5157,-0.5146,-0.514,-0.5136,-0.5128,-0.5127,-0.5128,-0.5127,-0.5122,-0.5122,-0.5123,-0.5114,-0.5114,-0.5114,0,0,-0.5319,-0.5306,-0.5297,-0.5285,-0.5266,-0.5253,-0.5252,-0.523,-0.5222,-0.5209,-0.5196,-0.5186,-0.5164,-0.5153,-0.5144,-0.5145,-0.5135,-0.5141,-0.5148,-0.5142,-0.5143,-0.5143,-0.5144,-0.5144,-0.5141,-0.5141,-0.5141,0,-0.5329,-0.5311,-0.5294,-0.5284,-0.5274,-0.5258,-0.525,-0.5239,-0.5217,-0.5211,-0.5207,-0.518,-0.5168,-0.5154,-0.5154,-0.5147,-0.5145,-0.5144,-0.5144,-0.5144,-0.5145,-0.5145,-0.5145,-0.5142,-0.5142,-0.5142,-0.5141,0,-0.5324,-0.5312,-0.5308,-0.5287,-0.5277,-0.5268,-0.525,-0.5242,-0.5232,-0.522,-0.5207,-0.5191,-0.5175,-0.5171,-0.5161,-0.5156,-0.5154,-0.5148,-0.5141,-0.5147,-0.5147,-0.5147,-0.5143,-0.5143,-0.5142,-0.5142,0,0,-0.5341,-0.531,-0.5309,-0.5299,-0.5278,-0.5268,-0.5258,-0.5242,-0.5236,-0.5222,-0.5213,-0.5195,-0.5189,-0.5179,-0.5168,-0.5164,-0.5166,-0.5157,-0.5157,-0.516,-0.5159,-0.5164,-0.5164,-0.5159,-0.5159,-0.5159,-0.516,0,-0.5343,-0.5324,-0.5308,-0.5295,-0.5284,-0.5269,-0.526,-0.5246,-0.5234,-0.5224,-0.5211,-0.5199,-0.5191,-0.5185,-0.518,-0.5166,-0.5165,-0.5166,-0.5151,-0.5151,-0.5157,-0.5164,-0.517,-0.5172,-0.516,-0.516,-0.516,0,-0.5343,-0.5329,-0.5315,-0.5294,-0.5289,-0.5281,-0.5265,-0.5255,-0.5239,-0.5231,-0.522,-0.5208,-0.5197,-0.5192,-0.5177,-0.5178,-0.5171,-0.5164,-0.5163,-0.5162,-0.5156,-0.5163,-0.5172,-0.5172,-0.516,-0.516,-0.516,0,-0.5357,-0.5334,-0.5323,-0.5315,-0.529,-0.5285,-0.5275,-0.5259,-0.525,-0.5236,-0.523,-0.5216,-0.5208,-0.5197,-0.5182,-0.5179,-0.5168,-0.5162,-0.5162,-0.5162,-0.516,-0.5161,-0.5168,-0.5155,-0.5155,-0.5155,-0.5155,0,-0.5361,-0.5353,-0.5328,-0.5322,-0.5312,-0.5295,-0.5286,-0.5274,-0.526,-0.5251,-0.5236,-0.5228,-0.5208,-0.5198,-0.5186,-0.5176,-0.5172,-0.5166,-0.5163,-0.5167,-0.5168,-0.5162,-0.5162,-0.5156,-0.5156,-0.5156,-0.5156,0,-0.5375,-0.5358,-0.5345,-0.5322,-0.5317,-0.5311,-0.5292,-0.5285,-0.5272,-0.5261,-0.5257,-0.5238,-0.5225,-0.5208,-0.519,-0.5182,-0.5173,-0.5168,-0.5178,-0.5177,-0.5178,-0.5178,-0.5182,-0.5182,-0.5169,-0.5169,-0.517,0,-0.5379,-0.5372,-0.5349,-0.5342,-0.5332,-0.532,-0.5311,-0.5293,-0.5285,-0.5266,-0.5261,-0.5247,-0.5234,-0.5214,-0.5199,-0.5185,-0.518,-0.5182,-0.5177,-0.5182,-0.518,-0.5181,-0.518,-0.5184,-0.5184,-0.5184,-0.5184,0,-0.5388,-0.538,-0.5367,-0.5351,-0.5341,-0.5328,-0.5315,-0.5309,-0.5289,-0.528,-0.5267,-0.5257,-0.5238,-0.5224,-0.5208,-0.5198,-0.5188,-0.5186,-0.5185,-0.519,-0.5196,-0.5193,-0.5182,-0.5186,-0.5185,-0.5185,-0.5185,-0.5185,-0.5397,-0.539,-0.5373,-0.5359,-0.5347,-0.5335,-0.5327,-0.5314,-0.5302,-0.5285,-0.5275,-0.5262,-0.5246,-0.5223,-0.5213,-0.5203,-0.5199,-0.5198,-0.5198,-0.5198,-0.52,-0.5197,-0.52,-0.52,-0.52,-0.52,-0.52,0,-0.5405,-0.5393,-0.5381,-0.5362,-0.5352,-0.5342,-0.5327,-0.5319,-0.5307,-0.5293,-0.5281,-0.5265,-0.5252,-0.5235,-0.5221,-0.5215,-0.5211,-0.5212,-0.5213,-0.521,-0.5203,-0.5206,-0.5217,-0.5217,-0.5217,-0.5217,-0.5217,-0.5217,-0.5408,-0.5397,-0.5387,-0.5369,-0.5357,-0.5344,-0.5336,-0.5325,-0.5313,-0.5296,-0.5285,-0.5274,-0.5259,-0.5243,-0.523,-0.5226,-0.5221,-0.5224,-0.5219,-0.5212,-0.5211,-0.521,-0.5212,-0.5223,-0.5223,-0.5226,-0.5226,-0.5226]},{"header":{"parameterUnit":"m.s-1","parameterCategory":1,"la1":30.2991,"la2":30.254,"lo1":-89.0895,"lo2":-89.0444,"dy":0.0017,"dx":0.0017,"nx":28,"ny":28,"refTime":"2024-03-29T09:00:00:Z","depth":0,"parameterNumber":3,"parameterNumberName":"V-component_of_WINDS"},"data":[0,0,0,0,0,0,0,0,0,0,0,0,0,0,0,0,0,0,0,0,0,0,0,0,0,0,0,0,0,0,0,0,0,0,0,0,0,0,0,0,0,0,0,0,0,0,0,0,0,0,0,0,0,0,0,0,0,0,3.2289,3.2289,0,3.231,3.231,3.231,3.2273,3.2272,3.227,3.2269,3.229,3.2292,3.2293,0,0,0,0,0,0,0,0,0,0,0,0,0,3.2215,3.2217,3.2289,3.2289,3.2289,3.231,3.231,3.231,3.2273,3.2272,3.227,3.2269,3.2289,3.2291,3.2293,0,0,0,0,0,0,0,0,0,0,0,0,0,3.2243,3.2217,3.2289,3.2273,3.2272,3.231,3.231,3.231,3.2274,3.2272,3.227,3.2268,3.2289,3.2291,3.2294,3.2347,0,0,3.2301,3.2303,0,0,0,0,0,0,0,0,3.2241,3.2246,3.2275,3.2274,3.2273,3.2287,3.2292,3.2323,3.2274,3.2273,3.2269,3.2267,3.229,3.2293,3.2301,3.2348,3.2349,3.2302,3.2303,3.2304,3.2305,0,0,0,0,0,0,0,3.224,3.2244,3.2297,3.2276,3.2274,3.2265,3.2267,3.2297,3.2292,3.2273,3.227,3.2273,3.2289,3.2298,3.2301,3.2349,3.2302,3.2304,3.2306,3.2307,3.2442,3.2444,0,0,0,0,0,0,3.224,3.2243,3.2296,3.2298,3.2252,3.2268,3.227,3.2284,3.2291,3.2291,3.2275,3.2271,3.2295,3.2298,3.2301,3.2365,3.2304,3.2307,3.2308,3.244,3.2442,3.2445,0,0,0,0,0,0,3.2238,3.2245,3.2295,3.227,3.2275,3.2271,3.2288,3.2286,3.2295,3.2293,3.2292,3.2285,3.2293,3.2298,3.2336,3.2365,3.2308,3.231,3.2438,3.2441,3.2444,3.2492,0,0,0,0,0,0,3.2236,3.2244,3.2265,3.227,3.2277,3.233,3.2289,3.2287,3.2299,3.2295,3.2302,3.2302,3.2292,3.2333,3.2339,3.2368,3.2312,3.2435,3.2439,3.2443,3.2488,3.2497,3.2504,0,0,0,0,0,3.2234,3.2277,3.2266,3.2273,3.2303,3.2332,3.2336,3.2325,3.2302,3.2322,3.2321,3.2301,3.2361,3.2337,3.2343,3.2374,3.2433,3.2438,3.2442,3.2485,3.2495,3.2504,0,0,0,0,0,0,3.2275,3.2278,3.2265,3.2312,3.2322,3.2326,3.2351,3.2336,3.2352,3.2348,3.2333,3.2334,3.2376,3.2378,3.2352,3.2426,3.2393,3.2399,3.2423,3.2433,3.2441,3.2439,3.2314,0,0,0,0,0,3.2289,3.2314,3.2315,3.2356,3.2362,3.2356,3.2368,3.2359,3.2368,3.2372,3.2374,3.2384,3.2405,3.2419,3.2438,3.2488,3.2489,3.2512,3.252,3.2527,3.2532,3.256,3.257,3.246,3.246,3.246,0,0,3.232,3.2324,3.234,3.2364,3.2371,3.2396,3.2359,3.2387,3.2406,3.2376,3.2413,3.2415,3.2425,3.2469,3.2489,3.2473,3.2563,3.2532,3.2538,3.254,3.2565,3.2576,3.2585,3.2463,3.2462,3.2462,0,0,3.2388,3.2394,3.2429,3.2436,3.2447,3.2443,3.2452,3.2458,3.2458,3.2494,3.2473,3.2494,3.2531,3.2539,3.2548,3.262,3.2602,3.2626,3.2668,3.2695,3.2703,3.2711,3.2737,3.2747,3.2632,3.2632,3.2632,0,3.2424,3.2461,3.2449,3.2479,3.249,3.2465,3.25,3.2508,3.2525,3.2533,3.2514,3.256,3.2564,3.2611,3.2629,3.2637,3.2646,3.2625,3.2703,3.2711,3.2718,3.2742,3.2752,3.2635,3.2634,3.2634,3.2634,0,3.2506,3.2532,3.2559,3.2576,3.259,3.2623,3.2615,3.2631,3.262,3.2618,3.2656,3.2661,3.2681,3.2691,3.2681,3.2737,3.2726,3.2706,3.2672,3.2731,3.2754,3.2764,3.2639,3.2638,3.2637,3.2636,0,0,3.26,3.2611,3.2621,3.2629,3.2639,3.2659,3.269,3.271,3.2724,3.2736,3.2762,3.2794,3.2775,3.2785,3.2776,3.2799,3.2856,3.2776,3.2776,3.2791,3.2919,3.2935,3.2946,3.2845,3.2846,3.2848,3.2918,0,3.2669,3.2723,3.2713,3.2767,3.2791,3.2767,3.2795,3.2804,3.2803,3.2823,3.2821,3.2844,3.2817,3.2824,3.2846,3.2845,3.2882,3.2839,3.2869,3.287,3.2868,3.2958,3.2975,3.3041,3.2927,3.2929,3.293,0,3.2756,3.2772,3.2828,3.2835,3.2845,3.287,3.2887,3.2907,3.2917,3.2914,3.2926,3.2912,3.2943,3.2909,3.2952,3.2924,3.2935,3.2936,3.2939,3.2941,3.2904,3.2964,3.3062,3.3072,3.2944,3.2942,3.2941,0,3.282,3.2856,3.2894,3.2901,3.291,3.2928,3.2933,3.2941,3.2954,3.2969,3.2977,3.2996,3.3006,3.3021,3.3012,3.2988,3.3057,3.3022,3.3056,3.3056,3.3072,3.3071,3.3174,3.3078,3.3078,3.3078,3.3078,0,3.2898,3.2933,3.2923,3.2947,3.2986,3.2973,3.3012,3.3014,3.3021,3.3045,3.3025,3.3047,3.3034,3.3056,3.3049,3.3086,3.309,3.3089,3.3087,3.3092,3.3092,3.3099,3.3095,3.308,3.308,3.3079,3.3079,0,3.2976,3.2971,3.3012,3.3017,3.3019,3.3048,3.3052,3.3074,3.3071,3.3101,3.3107,3.3103,3.3127,3.312,3.3146,3.3141,3.3188,3.318,3.3185,3.3184,3.3218,3.3215,3.3329,3.3344,3.3239,3.324,3.324,0,3.3027,3.3054,3.3062,3.3077,3.3083,3.3106,3.3119,3.3108,3.3123,3.3136,3.3157,3.3179,3.3197,3.3236,3.3236,3.3255,3.3248,3.3286,3.325,3.3254,3.3249,3.3248,3.3251,3.3294,3.3295,3.3296,3.3297,0,3.3117,3.3113,3.3133,3.3153,3.3169,3.3184,3.3197,3.321,3.3199,3.3217,3.3241,3.3255,3.3282,3.3304,3.3322,3.3326,3.331,3.3308,3.3317,3.3322,3.3324,3.3324,3.3206,3.3305,3.3305,3.3304,3.3303,3.3303,3.3183,3.3206,3.3216,3.3239,3.3248,3.326,3.3282,3.3282,3.3303,3.3324,3.3316,3.3344,3.3354,3.3376,3.3383,3.3405,3.339,3.3403,3.3406,3.341,3.3415,3.332,3.3408,3.3408,3.3407,3.3407,3.3407,0,3.3273,3.3278,3.33,3.3319,3.3337,3.332,3.3334,3.335,3.3376,3.3386,3.3404,3.3432,3.3454,3.3455,3.3476,3.3493,3.3486,3.3499,3.3498,3.35,3.3426,3.3417,3.3505,3.3505,3.3504,3.3504,3.3504,3.3504,3.3322,3.336,3.3358,3.34,3.3405,3.3433,3.3442,3.3454,3.3462,3.3495,3.3514,3.3514,3.3521,3.3542,3.3561,3.3561,3.357,3.3586,3.3583,3.3514,3.3505,3.3495,3.3486,3.3587,3.3587,3.3654,3.3655,3.3655]}]]